Location: Mahannah Oil Field
(37.4664°N, 96.6003°W)
Time: 00:49:52
(UTC+00:00)

Vanguard 3 - Pass Details

Date: 24 January 2021
Orbit: 508 x 3262 km, 33.4° (Epoch: 03 March)

Event Time Altitude Azimuth Distance (km) Brightness Sun altitude
Exits shadow 12:33:22 13° 266° (W) 3,153 9.6 -12.5°
Maximum altitude 12:41:32 70° 185° (S) 2,017 9.1 -10.9°
Drops below altitude 10° 12:57:17 10° 106° (ESE) 5,647 13.2 -7.9°
Sets 13:02:24 0° 105° (ESE) 6,938 14.6 -6.9°
